This demonstration page uses our WeatherBlox Daily Observations layout. Learn more.

Left ArrowRight Arrow

39.08367, -84.50855

Hourly Observations for March 2, 2020

Temp ( °F °C ) Dew Point ( °F °C ) Humidity (%) Winds ( mph kmh ) Pressure ( in mb ) Visibility ( mi km ) Precip ( " mm )
12:53 am 00:53 Cloudy 58 14.4 36 2.2 44 44 SW 13 20 29.93 1014 10 16 N/A
1:53 am 01:53 Mostly Cloudy 57 13.9 36 2.2 45 45 SSW 16 26 29.91 1013 10 16 0.00 0.00
2:53 am 02:53 Mostly Clear 56 13.3 36 2.2 47 47 SSW 15 24 29.89 1012 10 16 N/A
3:53 am 03:53 Cloudy 57 13.9 36 2.2 45 45 SSW 17 28 29.87 1011 10 16 N/A
4:53 am 04:53 Cloudy 55 12.8 38 3.3 53 53 SSW 15 24 29.85 1011 10 16 N/A
5:53 am 05:53 Cloudy 55 12.8 41 5 59 59 SSW 17 28 29.85 1011 10 16 N/A
6:53 am 06:53 Cloudy with Light Rain 54 12.2 42 5.6 64 64 SSW 15 24 29.84 1010 10 16 0.00 0.00
7:36 am 07:36 Cloudy with Light Rain 52 11.1 44 6.7 75 75 SSW 12 19 29.84 1010 10 16 0.00 0.00
7:53 am 07:53 Cloudy with Light Rain 51 10.6 45 7.2 80 80 SSW 13 20 29.83 1010 7 11 0.01 0.25
8:53 am 08:53 Cloudy 50 10 47 8.3 89 89 S 9 15 29.83 1010 10 16 0.01 0.25
9:53 am 09:53 Cloudy 51 10.6 47 8.3 86 86 SSW 12 19 29.82 1010 10 16 N/A
10:53 am 10:53 Cloudy with Mist and Fog 51 10.6 48 8.9 89 89 SSW 13 20 29.80 1009 6 10 N/A
11:53 am 11:53 Cloudy with Mist and Fog 52 11.1 48 8.9 86 86 SSW 15 24 29.80 1009 6 10 N/A
12:53 pm 12:53 Cloudy with Light Rain 52 11.1 49 9.4 89 89 SW 10 17 29.78 1009 6 10 0.05 1.27
1:19 pm 13:19 Cloudy with Rain 52 11.1 50 10 93 93 SSW 6 9 29.78 1008 3 5 0.05 1.27
1:26 pm 13:26 Cloudy with Rain 52 11.1 50 10 93 93 SSW 7 11 29.77 1008 2 3 0.07 1.78
1:53 pm 13:53 Cloudy with Light Rain 52 11.1 50 10 93 93 SW 6 9 29.75 1008 4 6 0.11 2.79
2:53 pm 14:53 Cloudy 53 11.7 50 10 89 89 SW 12 19 29.75 1007 10 16 0.00 0.00
3:37 pm 15:37 Cloudy 53 11.7 50 10 89 89 SSW 8 13 29.74 1007 10 16 N/A
3:53 pm 15:53 Cloudy 53 11.7 51 10.6 93 93 SW 8 13 29.74 1007 10 16 N/A
4:53 pm 16:53 Cloudy with Mist and Fog 53 11.7 51 10.6 93 93 SW 6 9 29.75 1008 5 8 N/A
5:53 pm 17:53 Cloudy 53 11.7 51 10.6 93 93 SW 6 9 29.78 1008 7 11 N/A
6:53 pm 18:53 Cloudy 53 11.7 51 10.6 93 93 SW 5 7 29.78 1008 10 16 0.00 0.00
7:53 pm 19:53 Cloudy 51 10.6 50 10 96 96 SSW 3 6 29.78 1009 8 13 N/A
8:53 pm 20:53 Cloudy 51 10.6 50 10 96 96 SW 5 7 29.78 1009 9 14 N/A
9:53 pm 21:53 Cloudy with Light Rain 51 10.6 50 10 96 96 N N/A 29.77 1008 4 6 0.00 0.00
10:50 pm 22:50 Cloudy with Mist and Fog 50 10 50 10 100 100 N N/A 29.76 1008 2 3 0.00 0.00
10:53 pm 22:53 Cloudy with Mist and Fog 50 10 50 10 100 100 N N/A 29.75 1007 1 2 0.00 0.00
10:58 pm 22:58 Cloudy with Mist and Fog 50 10 49 9.4 96 96 N N/A 29.76 1008 1 1 N/A
11:32 pm 23:32 Cloudy with Mist and Fog 50 10 50 10 100 100 N N/A 29.74 1007 3 4 N/A
11:37 pm 23:37 Cloudy with Mist and Fog 49 9.4 49 9.4 100 100 N N/A 29.74 1007 1 1 N/A
11:53 pm 23:53 Cloudy with Mist and Fog 50 10 50 10 100 100 N N/A 29.71 1006 3 4 N/A

Powered by AerisWeather